Location: ???????????
(54.5822°N, 39.1075°E)
Time: 17:40:05
(UTC+00:00)

Cosmos 614 Rocket - Pass Details

Date: 19 May 2025
Orbit: 729 x 757 km, 74.1° (Epoch: 21 June)

Event Time Altitude Azimuth Distance (km) Brightness Sun altitude
Exits shadow 23:34:37 12° 195° (SSW) 2,158 5.7 -10.1°
Maximum altitude 23:39:27 70° 113° (ESE) 808 4.2 -9.7°
Drops below altitude 10° 23:44:37 10° 30° (NNE) 2,295 8.2 -9.3°
Sets 23:47:00 0° 29° (NNE) 3,221 9.5 -9.1°
